Terminal Aerodrome Forecast
Issued by NWS

Home | Current Version | Previous Version | Text Only | Print | Product List | Glossary Off
Versions: 1 2 3 4 5 6 7 8 9 10 11 12 13 14 15 16 17 18 19 20 21

000
FTUS42 KMHX 251200 AAA
TAFISO
TAF AMD
KISO 251251Z 2513/2612 03005KT 3SM BR OVC006
     FM251330 06005KT P6SM SCT025 SCT100
     FM260600 00000KT 1 1/2SM BR BKN003
      AMD LTD TO CLD VIS AND WIND=

USA.gov is the U.S. government's official web portal to all federal, state and local government web resources and services.